Showing default

LT-1 O1A, 51284

Orbit data source: Space-Track

LT-1 O1A, 51284 is a payload satellite owned by SAST (CN) in SSO that was launched on Tue, 25 Jan 2022 UTC via a CHANG ZHENG 4C launch vehicle from the Jiuquan Satellite Launch Center, China (JSC). Payload-class satellites include a variety of spacecraft equipped with specific instruments for various scientific and technological missions. These include communications satellites like Starlink; space stations such as the ISS; scientific satellites like the Hubble; Earth observation satellites from companies like Planet Labs, Umbra, and HawkEye 360; GPS; miniature CubeSats for education and research; and military/defense satellites.

Loading next visibility...
Identifier
51284, 2022-007A
Orbit
SSO
Last TLE update
5 hours ago
Origin
Manufacturer
SAST
Mission
Operational Civil Radar Imaging
Bus & Motor
LSAR, AOCS 20N
Mass
3,200 kg wet, ~2,500 kg dry
Launch date (UTC)
2022-01-25 (3 years ago)
Launch vehicle
CHANG ZHENG 4C
Launch site
Jiuquan Satellite Launch Center, China (JSC)
Object type
Payload
Rocket body
Debris
Shape & HBR
Box + 4 Pan, 10 m
Radar Cross Section
14.608 m², Large (>1 m²)

Expand to show TLE details & history

TLE from 5 hours ago
0 LT-1 O1A
1 51284U 22007A   25170.82815721  .00000581  00000-0  68598-4 0  9994
2 51284  97.8101 178.4401 0001597  90.5267 269.6132 14.88406824184573
Epoch: 2025-06-19T19:52Z
TLE epoch observation values (Epoch: 2025-06-19T19:52:32.782Z)
Latitude
-0.00013°
Longitude
-27.98672°
Altitude
605.956 km
Speed
7.556 km/s
True Right ascension
11h 53m 45s
True Declination
0° 00' 00"
Sunlit
Object was in daylight at epoch
Visualization orbit readout
Latitude
51.65463°
Longitude
162.16594°
Altitude
610.401 km
Speed
7.56 km/s
Apparent Right ascension
00h 21m 54s
Apparent Declination
8° 32' 43"
Sunlit
Object is in daylight
Visualization observer readout
Local Sidereal Time
12:10:51
Azimuth
356.354° N
Elevation
-41.471°
Doppler factor
1
Orbital elements
Apogee altitude
601.053 km
Perigee altitude
598.824 km
Semi-major axis
6,978.075 km
Eccentricity
0.00016
Inclination
97.8101°
RAAN
178.4401°
Arg. of periapsis
90.5267°
True anomaly
Unknown
Mean anomaly
269.6132°
Eccentric anomaly
Unknown
Mean motion
3.7234 °/min
Orbital period
96.69 mins
BSTAR
0.000068598
Loading maneuver chart data...
Loading SW <> Apogee altitude chart data...
Loading historical data...
Loading historical data...
Loading historical data...
Loading historical data...
Loading historical data...
Loading historical data...
Loading historical data...
Other satellites on launch #7 in the year 2022 (2022-01-25 UTC)

LT-1 O1A Visibility forecast

Observer location: undefined°, undefined°

Span
Click to sort rows by Start time (UTC) header in descending order
Start Az.
Max El. time (UTC)
Max El. Az.
Max El.
End time (UTC)
End Az.
6 mins2025-06-20 12:35:17.130Z41.866° NE2025-06-20 12:38:17.130Z89.676° E22.294°2025-06-20 12:41:17.130Z144.084° SSE
5 mins2025-06-20 14:12:17.130Z330.805° NNW2025-06-20 14:14:17.130Z289.382° WNW23.864°2025-06-20 14:17:17.130Z237.756° WSW
6 mins2025-06-21 01:03:17.130Z205.229° SW2025-06-21 01:05:17.130Z250.267° W31.527°2025-06-21 01:09:17.130Z329.79° NNW
|